FENGYUN 1C DEB

Satellite information

Favourite Embed

Satellite Type and Status

DEBRISIN ORBIT

Key statistics

Satellite FENGYUN 1C DEB at a glance.

Uptime

9556

Days in orbit

Revolutions

≈ 14.4

Per day

Orbit

SSO

Sun Synchronous Orbit

Inclination

98.9

Latest

Satellite identification and parameters

Extended collection of information and parameters for FENGYUN 1C DEB.

Object identification

Identified? True

Debris? True

Object name: FENGYUN 1C DEB

International designator: 1999-025ANG

Object number (NORAD): 30625

Object ID (CCSDS): 30625

Country: PEOPLES REPUBLIC OF CHINA (PRC)

Current information (Y/N): Y

RCS size: SMALL

Orbital parameters

Period: 100.226 minutes

Inclination: 98.9254 deg

SMA: 7147.37 km

Apoapsis: 810.771 km

Periapsis: 727.699 km

RAAN: 137.4186 deg

Eccentricy: 0.0058114

Argument of periapsis: 48.852 deg

Mean anomaly: 311.7659 deg

Mean motion: 14.36757093 rev/day

Mean motion (dot): 0.00008026 rev/day2

B* drag term: 0.0026812 1/REarth

Two-line elements (TLE)

Creation date: July 7, 2025, 5:18 a.m.

Reference frame: TEME

Reference center: EARTH

Epoch: July 6, 2025, 7:05 p.m. UTC

TLE line 0: 0 FENGYUN 1C DEB

TLE line 1: 1 30625U 99025ANG 25187.79542237 .00008026 00000-0 26812-2 0 9990

TLE line 2: 2 30625 98.9254 137.4186 0058114 48.8520 311.7659 14.36757093944072

Live tracking on map

Real-time ground track for satellite FENGYUN 1C DEB.

In-orbit conjunctions

A list of the most updated potential collisions computed for object FENGYUN 1C DEB.

Target Orbit TCA Probability of collision Miss distance Type
FENGYUN 1C DEB SSO 2025-05-29 13:54:52 0.000114575 163.0 (m) DEBRIS
FENGYUN 1C DEB SSO 2024-09-26 18:51:47 0.0001291432 550.0 (m) DEBRIS
COROT SSO 2024-08-05 10:48:26 0.0002100756 32.0 (m) PAYLOAD

Associated space launch

Chinese polar orbiting meteorological satellite

FENGYUN 1C DEB was lifted into orbit during the mission ‘Long March 4B | Feng Yun 1C’, on board a Long March 4B space rocket.

The launch took place on May 10, 1999, 1:33 a.m. from Launch Complex 7.

For more information about the launch, click the button.

Launch to space Long March 4B | Feng Yun 1C
Long March 4B | Feng Yun 1C

Agency: N/A

Status: Launch Successful

Launch date: May 10, 1999, 1:33 a.m. UTC

Rocket: Long March 4B

Launch pad: Launch Complex 7

Location: Taiyuan Satellite Launch Center, People's Republic of China

...

Latest news about this satellite

There are no fresh news available about this satellite. Check back as we update our databases every day.


Newsletter sign-up

Weekly statistics, charts and insights to help you stay on top of the space industry.